Weather observations for the past three days for
Beaumont Municipal Airport
Metric (Imperial)
Date Time (cdt) Wind (kph) Vis. (km) Weather Sky Cond. Temperature (ºC) Relative Humidity Wind Chill (°C) Heat Index (°C) Pressure Precipitation (cm)
Air Dwpt 6 hour altimeter (cm) sea level (mb) 1 hr 3 hr 6 hr
Max. Min.
05 07:55 Calm 11.27 Partly Cloudy SCT022 24.3 23.5 95% 24 76.07 0.0
05 07:35 Calm 16.09 Partly Cloudy SCT022 24 23.1 95% 23 76.05 0.0
05 07:15 Calm 16.09 Fair CLR 24 23.1 95% 23 76.02 0.0
05 06:55 Calm 16.09 Fair CLR 24 23 25.1 23.5 94% 23 76 0.0
05 06:35 Calm 11.27 Fair CLR 23.6 22.7 95% 75.97 0.0
05 06:15 Calm 16.09 Fair CLR 23.8 23 95% 75.97 0.0
05 05:55 Calm 11.27 Fair CLR 23.6 22.7 95% 75.97 0.0
05 05:35 Calm 16.09 Fair CLR 23.9 23 95% 23 75.97 0.0
05 05:15 Calm 16.09 Fair CLR 24.1 23.2 95% 23 75.97 0.0
05 04:55 Calm 16.09 Fair CLR 24.1 23.1 94% 23 75.97 0.0
05 04:35 Calm 16.09 Fair CLR 24.4 23.4 94% 24 75.95 0.0
05 04:15 Calm 16.09 Fair CLR 24.1 23.1 94% 23 75.95 0.0
05 03:55 Calm 16.09 Fair CLR 24.3 23.3 94% 24 75.95 0.0
05 03:35 Calm 16.09 Fair CLR 24.3 23.2 94% 24 75.95 0.0
05 03:15 Calm 16.09 Fair CLR 24.3 23.5 95% 24 75.95 0.0
05 02:55 Calm 16.09 Fair CLR 24.5 23.2 93% 24 75.95 0.0
05 02:35 Calm 16.09 Fair CLR 24.9 23.6 93% 25 75.95 0.0
05 02:15 Calm 16.09 Fair CLR 24.2 23.2 94% 24 75.95 0.0
05 01:55 Calm 16.09 Fair CLR 25 23.8 93% 26 75.97 0.0
05 01:35 Calm 11.27 Fair CLR 24.4 23.5 95% 24 76 0.0
05 01:15 Calm 16.09 Fair CLR 24.6 23.5 94% 25 75.97 0.0
05 00:55 Calm 16.09 Fair CLR 24.7 23.6 29.3 24.7 94% 25 76 0.0
05 00:35 Calm 16.09 Fair CLR 25.4 23.8 91% 27 76 0.0
05 00:15 Calm 16.09 Fair CLR 24.9 23.7 93% 25 76 0.0
04 23:55 Calm 16.09 Fair CLR 25.2 23.9 93% 26 76 0.0
04 23:35 Calm 16.09 Fair CLR 25.4 24 92% 27 76.02 0.0
04 23:15 Calm 11.27 Fair CLR 25.9 24 89% 28 76.02 0.0
04 22:55 Calm 16.09 Fair CLR 25.5 24 91% 27 76.02 0.0
04 22:35 Calm 16.09 Fair CLR 25.6 24 91% 27 76.02 0.0
04 22:15 Calm 16.09 Fair CLR 25.8 23.8 89% 28 76.02 0.0
04 21:55 Calm 11.27 Fair CLR 26.2 24 88% 28 76.02 0.0
04 21:35 Calm 16.09 Fair CLR 26.2 24 88% 28 76.02 0.0
04 21:15 S 6 16.09 Fair CLR 26.6 24.1 86% 29 76 0.0
04 20:55 S 7 16.09 Fair CLR 26.8 24.1 85% 30 76 0.0
04 20:35 S 6 16.09 Fair CLR 27.1 24 83% 30 75.97 0.0
04 20:15 SE 7 16.09 Fair CLR 27.1 24 83% 30 75.97 0.0
04 19:55 SE 6 16.09 Fair CLR 27.6 24.1 81% 31 75.95 0.0
04 19:35 SE 6 16.09 Fair CLR 28.1 24.2 79% 32 75.95 0.0
04 19:15 Calm 16.09 Fair CLR 29 24.3 76% 34 75.95 0.0
04 18:55 S 6 16.09 Fair CLR 29.3 24.3 32.1 27.5 75% 34 75.95 0.0
04 18:35 SE 7 16.09 Fair CLR 29.5 23.5 70% 34 75.95 0.0
04 18:15 Calm 16.09 Fair CLR 30.2 22.7 64% 34 75.95 0.0
04 17:55 Calm 16.09 Fair CLR 31.1 20.8 54% 34 75.95 0.0
04 17:35 Calm 16.09 Fair CLR 31 20.4 53% 33 75.92 0.0
04 17:15 Calm 16.09 Fair CLR 31.5 20.3 51% 34 75.92 0.0
04 16:55 S 6 16.09 Fair CLR 31.1 21 55% 34 75.92 0.0
04 16:35 Calm 16.09 Fair CLR 31.4 21.5 56% 35 75.92 0.0
04 16:15 Calm 16.09 Fair CLR 31.8 21.1 53% 35 75.95 0.0
04 15:55 Calm 16.09 Fair CLR 31.2 22 58% 35 75.97 0.0
04 15:35 SE 6 16.09 Fair CLR 30.5 21.8 60% 34 76 0.0
04 15:15 SE 6 16.09 Fair CLR 30.8 22.5 61% 35 76.02 0.0
04 14:55 Calm 16.09 Fair CLR 30.1 22.4 63% 34 76.02 0.0
04 14:35 Calm 16.09 Fair CLR 29.7 22.4 65% 33 76.07 0.0
04 14:15 Calm 16.09 Fair CLR 29.5 22.6 66% 33 76.07 0.0
04 13:55 S 7 16.09 Fair CLR 30 22.5 64% 34 76.1 0.0
04 13:35 Calm 16.09 Fair CLR 28.5 23 72% 32 76.1 0.0
04 13:15 SE 7 16.09 Fair CLR 27.7 23.5 78% 31 76.15 0.0
04 12:55 Calm 16.09 Thunderstorm in Vicinity CLR 27.9 23.4 31.4 24.3 77% 31 76.15 0.0
04 12:35 SW 11 16.09 Thunderstorm SCT036 SCT043 SCT050 27.5 22.8 76% 30 76.15 0.0
04 12:15 S 11 G 26 16.09 Thunderstorm SCT034 SCT043 BKN050 28.7 23.4 73% 33 76.15 0.0
04 11:55 SE 9 16.09 Thunderstorm CLR 31.1 22.7 61% 35 76.15 0.0
04 11:35 E 7 16.09 Fair CLR 30.8 23.5 65% 36 76.15 0.0
04 11:15 E 7 16.09 Fair CLR 30.7 24 67% 36 76.15 0.0
04 10:55 E 6 16.09 Fair CLR 28.8 24.1 76% 33 76.15 0.0
04 10:35 NE 9 16.09 Fair CLR 30.5 24 68% 36 76.15 0.0
04 10:15 E 7 16.09 Fair CLR 30.2 24.2 70% 36 76.12 0.0
04 09:55 E 9 16.09 Thunderstorm in Vicinity CLR 29.7 24.5 74% 35 76.12 0.0
04 09:35 E 6 16.09 Fair CLR 29.3 24.3 75% 34 76.15 0.0
04 09:15 E 6 4.83 Fair with Haze CLR 28.5 24.6 79% 33 76.12 0.0
04 08:55 NE 6 11.27 Partly Cloudy SCT022 28 24.7 82% 32 76.12 0.0
04 08:35 E 6 11.27 Fair CLR 27.5 24.8 85% 32 76.1 0.0
04 08:15 Calm 16.09 Fair CLR 26.6 24.6 89% 30 76.1 0.0
04 07:55 Calm 16.09 Fair CLR 25.6 24.4 93% 27 76.07 0.0
04 07:35 Calm 16.09 Fair CLR 25 24 94% 26 76.07 0.0
04 07:15 Calm 11.27 Fair CLR 24.7 23.9 95% 25 76.02 0.0
04 06:55 Calm 11.27 Fair CLR 24.5 23.5 25.1 23.6 94% 24 76.02 0.0
04 06:35 Calm 16.09 Fair CLR 24.6 23.7 95% 25 76.02 0.0
04 06:15 Calm 16.09 Fair CLR 24.5 23.6 95% 24 76.02 0.0
04 05:55 Calm 16.09 Partly Cloudy SCT021 SCT027 SCT034 24.6 23.8 95% 24 76.02 0.0
04 05:35 NE 7 16.09 Mostly Cloudy BKN021 BKN027 BKN034 24.6 23.9 96% 24 76.02 0.0
04 05:15 NE 7 16.09 Partly Cloudy SCT021 SCT027 24.3 23.5 95% 24 76.02 0.0
04 04:55 Calm 11.27 Partly Cloudy SCT021 24.1 23.3 95% 23 76.02 0.0
04 04:35 Calm 1.21 Fog/Mist VV005 23.7 23 96% 76 0.0
04 04:15 Calm 8.05 Fog/Mist SCT023 SCT029 24 23.2 95% 23 76 0.0
04 03:55 Calm 11.27 Partly Cloudy SCT023 24.2 23.5 96% 23 76 0.0
04 03:35 Calm 11.27 Fair CLR 24.1 23.3 95% 23 76 0.0
04 03:15 Calm 11.27 Fair CLR 24.5 23.6 95% 24 75.97 0.0
04 02:55 Calm 6.44 Fog/Mist CLR 24.3 23.4 95% 24 76 0.0
04 02:35 Calm 11.27 Fair CLR 24.5 23.6 95% 24 76 0.0
04 02:15 Calm 16.09 Fair CLR 24.7 23.7 94% 25 76 0.0
04 01:55 Calm 16.09 Fair CLR 24.6 23.6 94% 25 76 0.0
04 01:35 Calm 16.09 Fair CLR 24.8 23.7 94% 25 75.97 0.0
04 01:15 Calm 16.09 Fair CLR 25 24 94% 26 76 0.0
04 00:55 Calm 16.09 Fair CLR 24.8 23.7 29 24.8 94% 25 76 0.0
04 00:35 Calm 16.09 Fair CLR 25.2 24 93% 26 75.97 0.0
04 00:15 SE 6 16.09 Fair CLR 25.1 23.9 93% 26 75.97 0.0
03 23:55 Calm 16.09 Fair CLR 25 23.7 93% 26 75.97 0.0
03 23:35 Calm 16.09 Fair CLR 25 23.8 93% 26 76 0.0
03 23:15 Calm 16.09 Fair CLR 25 23.8 93% 26 76 0.0
03 22:55 SE 6 16.09 Fair CLR 25.1 23.7 92% 26 76.02 0.0
03 22:35 SE 6 16.09 Fair CLR 25.2 23.7 91% 26 76.02 0.0
03 22:15 SE 6 16.09 Fair CLR 25.4 23.6 90% 27 76.02 0.0
03 21:55 SE 6 16.09 Fair CLR 25.5 23.7 90% 27 76.02 0.0
03 21:35 Calm 16.09 Fair CLR 25.8 23.7 88% 27 76.02 0.0
03 21:15 Calm 16.09 Fair CLR 25.8 23.7 88% 27 76.02 0.0
03 20:55 Calm 16.09 Fair CLR 26 23.6 87% 28 76.02 0.0
03 20:35 S 6 16.09 Fair CLR 26 23.6 87% 28 75.97 0.0
03 20:15 Calm 16.09 Fair CLR 26.5 23.4 83% 29 75.95 0.0
03 19:55 E 6 16.09 Fair CLR 26.8 23.2 81% 29 75.95 0.0
03 19:35 SE 7 16.09 Fair CLR 27.5 22.9 76% 30 75.95 0.0
03 19:15 E 7 16.09 Fair CLR 28 23.5 77% 32 75.92 0.0
03 18:55 E 7 16.09 Fair CLR 29.1 23.8 73% 34 75.92 0.0
03 18:35 E 7 16.09 Fair CLR 29.5 23.3 69% 34 75.95 0.0
03 18:15 E 9 16.09 Fair CLR 30 23.3 67% 34 75.95 0.0
03 17:55 E 6 16.09 Fair CLR 29.6 22.4 65% 33 75.95 0.0
03 17:35 E 11 16.09 Partly Cloudy SCT032 SCT040 28.8 22.3 68% 32 75.97 0.0
03 17:15 E 19 G 31 16.09 Thunderstorm BKN038 31.2 24 66% 37 75.97 0.0
03 16:55 E 6 16.09 Partly Cloudy SCT038 31 22 59% 35 76 0.0
03 16:35 NE 6 16.09 Fair CLR 31.8 21.4 54% 35 76 0.0
03 16:15 NE 6 16.09 Fair CLR 31.2 22.2 59% 35 76.02 0.0
03 15:55 NE 9 16.09 Fair CLR 31 22.3 60% 35 76.02 0.0
03 15:35 NE 7 16.09 Fair CLR 31 22.1 59% 35 76.02 0.0
03 15:15 E 9 16.09 Fair CLR 31 22.5 61% 35 76.05 0.0
03 14:55 E 11 16.09 Partly Cloudy SCT075 SCT080 30.6 23 64% 35 76.05 0.0
03 14:35 Calm 16.09 Thunderstorm in Vicinity SCT075 29.8 23.8 70% 35 76.1 0.0
03 14:15 E 6 16.09 Partly Cloudy SCT075 29.1 24.9 78% 35 76.12 0.0
Date Time (cdt) Wind (kph) Vis. (km) Weather Sky Cond. Air Dwpt Max. Min. Relative Humidity Wind Chill (°C) Heat Index (°C) altimeter (cm) sea level (mb) 1 hr 3 hr 6 hr
6 hour
Temperature (ºC) Pressure Precipitation (cm)